Content
SEND FEEDBACK

Daily
Averages
Monthly
Summary
United Kingdom

LONDON, ENGLAND


Home > Europe > United Kingdom > England
Elevation: 203 feet     Latitude: 51 09N     Longitude: 000 11W

WEATHER
 
SELECT A DAY
Number of Records: 299,432;   Date Range: 7/1/96 - 12/18/14
 
SHARE

PRINT THIS DATA

[ ← Previous Day ]
WEATHER ALMANAC - JANUARY 12, 2014
[ Next Day → ]
[ °C ]   °F
Weather ElementAverageHighLow
Temperature38.1 °F50 °F (10:50 pm)26.6 °F (3:20 am)
Dewpoint36.4 °F48.2 °F (10:50 pm)24.8 °F (4:50 am)
Humidity93.6 %100 % (3:20 am)87 % (10:20 am)
Barometer29.99 in30.24 in (12:50 am)29.68 in (11:20 pm)
Wind Speed7.1 mph13.8 mph (10:50 pm)
Weather ElementAverage
Visibility3.9 mi
Wind DirectionESE (122.3 °)

Weather ElementTotal
Precipitation---
Heating Degree Days26.7 (Base 65)
Averaged from 47 records on January 12, 2014
WEATHER CONDITIONS BREAKOUT
WIND DIRECTION BREAKOUT
WEATHER BY HOUR - JANUARY 12, 2014
[ °C ]   °F
Local TimeTemperatureDewpointHumidityBarometerVisibilityWind DirectionWind SpeedGust SpeedPrecipitationEventsConditions
12:50 AM30.2 °F28.4 °F93 %30.24 in3.1 miCalmMist
1:20 AM30.2 °F28.4 °F93 %30.24 in3.1 miENE (70°)2.3 mphMist
1:50 AM28.4 °F26.6 °F93 %30.24 in3.1 miCalmMist
2:20 AM28.4 °F26.6 °F93 %30.24 in2.8 miEast (80°)2.3 mphMist
2:50 AM28.4 °F26.6 °F93 %30.24 in2.5 miENE (70°)3.5 mphMist
3:20 AM26.6 °F26.6 °F100 %30.21 in3.1 miEast (80°)3.5 mphMist
3:50 AM26.6 °F26.6 °F100 %30.21 in3.1 miEast (80°)3.5 mphMist
4:20 AM26.6 °F26.6 °F100 %30.21 in3.1 miENE (70°)4.6 mphMist
4:50 AM26.6 °F24.8 °F93 %30.18 in3.7 miEast (80°)4.6 mph
5:20 AM26.6 °F24.8 °F93 %30.18 in3.7 miEast (80°)4.6 mph
5:50 AM26.6 °F24.8 °F93 %30.18 in3.1 miEast (80°)5.8 mphMist
6:20 AM26.6 °F26.6 °F100 %30.15 in2.8 miEast (80°)4.6 mphMist
6:50 AM26.6 °F24.8 °F93 %30.15 in1.2 miENE (70°)3.5 mphMist
7:20 AM26.6 °F26.6 °F100 %30.15 in3.7 miENE (60°)4.6 mph
7:50 AM26.6 °F24.8 °F93 %30.12 in3.7 miEast (80°)3.5 mphPartly Cloudy
8:20 AM30.2 °F30.2 °F100 %30.12 in3.7 miEast (100°)4.6 mphPartly Cloudy
8:50 AM30.2 °F28.4 °F93 %30.12 in6.2 miEast (90°)4.6 mphPartly Cloudy
9:20 AM32.0 °F32.0 °F100 %30.12 in6.2 miVariable3.5 mphPartly Cloudy
9:50 AM39.2 °F37.4 °F93 %30.09 in6.2 miSSE (150°)8.1 mphScattered Clouds
10:20 AM41.0 °F37.4 °F87 %30.09 in6.2 miSSE (150°)10.4 mphMostly Cloudy
10:50 AM41.0 °F37.4 °F87 %30.09 in6.2 miSSE (150°)10.4 mphMostly Cloudy
11:20 AM41.0 °F37.4 °F87 %30.06 in6.2 miSSE (150°)9.2 mphMostly Cloudy
11:50 AM41.0 °F37.4 °F87 %30.04 in6.2 miSSE (150°)9.2 mphMostly Cloudy
12:20 PM41.0 °F37.4 °F87 %30.04 in6.2 miSSE (150°)9.2 mphMostly Cloudy
12:50 PM41.0 °F39.2 °F93 %30.01 in4.3 miSSE (150°)9.2 mphMostly Cloudy
1:20 PM41.0 °F39.2 °F93 %29.98 in5.0 miSSE (150°)9.2 mphMostly Cloudy
1:50 PM42.8 °F39.2 °F87 %29.95 in5.0 miSSE (150°)9.2 mphMostly Cloudy
2:20 PM42.8 °F41.0 °F93 %29.95 in5.0 miSSE (150°)9.2 mphMostly Cloudy
2:50 PM42.8 °F41.0 °F93 %29.92 in1.5 miSSE (150°)6.9 mphLight Drizzle
3:20 PM42.8 °F41.0 °F93 %29.92 in1.4 miSE (130°)9.2 mphDrizzle
3:50 PM42.8 °F41.0 °F93 %29.89 in1.4 miSE (140°)8.1 mphLight Drizzle
4:20 PM42.8 °F42.8 °F100 %29.86 in1.6 miSE (140°)6.9 mphLight Drizzle
4:50 PM42.8 °F42.8 °F100 %29.86 inSE (140°)6.9 mphDrizzle
5:20 PM44.6 °F42.8 °F93 %29.86 inSSE (150°)8.1 mphDrizzle
5:50 PM44.6 °F42.8 °F93 %29.83 in3.1 miSSE (150°)6.9 mphDrizzle
6:20 PM44.6 °F42.8 °F93 %29.83 in3.1 miSSE (160°)8.1 mphHaze
6:50 PM46.4 °F44.6 °F93 %29.80 in3.1 miSSE (160°)9.2 mphHaze
7:20 PM46.4 °F44.6 °F93 %29.80 in3.7 miSSE (150°)8.1 mphDrizzle
7:50 PM46.4 °F44.6 °F93 %29.77 in3.1 miSSE (160°)10.4 mphRainLight Rain
8:20 PM46.4 °F44.6 °F93 %29.77 inSSE (160°)10.4 mphHeavy Drizzle
8:50 PM46.4 °F44.6 °F93 %29.77 inSSE (160°)9.2 mphRainRain
9:20 PM48.2 °F46.4 °F93 %29.74 in3.7 miSSE (160°)8.1 mphRainRain
9:50 PM48.2 °F46.4 °F93 %29.71 in5.0 miSouth (180°)10.4 mphRainLight Rain
10:20 PM48.2 °F46.4 °F93 %29.71 in4.3 miSouth (180°)10.4 mphRainLight Rain
10:50 PM50.0 °F48.2 °F94 %29.71 in5.0 miSouth (190°)13.8 mphRainLight Rain
11:20 PM50.0 °F48.2 °F94 %29.68 in6.2 miSSW (200°)12.7 mphRainLight Rain
11:50 PM50.0 °F48.2 °F94 %29.71 in4.3 miSW (220°)12.7 mphOvercast
Hourly data recorded from EGKK, located miles away from London, England







STORIES FROM OUR PARTNERS